Nos coordonnées

Nous sommes à votre écoute du lundi au dimanche de 10:00 à 19:00 au :

+32 (0)495 19 89 53

 

Adresse d'exploitation Adresse de facturation
Chaussée de Nivelles, 629
6230 Buzet
Belgique
Kouter 107/2
9000 Gent
Belgique

contact @ blackhelicopters.be (n'oubliez pas de supprimer les espaces)


Nous retrouver

Il est très fortement conseillé de nous appeler avant de venir sur le terrain, nous pouvons être en mission ou en vol!

 

La carte ci-dessous est interactive, cherchez vos itinéraires, déplacez la pour vous retrouver.

News

Votre panier

Le panier est vide

Météo Charleroi

METAR
EBCI 050520Z 23012KT 3500 RADZ FEW003 BKN005 17/17 Q1014 NOSIG =
EBCI 050510Z 0506/0612 22013KT 9999 SCT008 BKN012 TEMPO 0506/0516 4000 DZRA SCT004 BKN006 TEMPO 0506/0519 23018G30KT BECMG 0516/0518 SCT025
TAF
EBCI 050510Z 0506/0612 22013KT 9999 SCT008 BKN012 TEMPO 0506/0516 4000 DZRA SCT004 BKN006 TEMPO 0506/0519 23018G30KT BECMG 0516/0518 SCT025 =
Lever / Coucher : 03:40 / 19:55 UTC (Buzet 2020-07-05)